EW9807 Weather Reports


time (UTC)temp
F
wind
direction
speed
knots
gust
knots
rain 1hr
in
rain 24hr
in
rain mn
in
humidity
%
barometer
mb
20260901155051 88 359 0.0 1.7 0.00 0.00 0.00 64 1019.0
20260901154552 88 25 0.0 1.7 0.00 0.00 0.00 64 1019.0
20260901154048 87 26 0.9 2.6 0.00 0.00 0.00 63 1019.1
20260901153547 88 108 0.9 2.6 0.00 0.00 0.00 67 1019.0
20260901153059 87 153 0.0 2.6 0.00 0.00 0.00 67 1019.1
20260901152543 86 96 0.0 1.7 0.00 0.00 0.00 69 1019.0
20260901152043 86 96 0.0 1.7 0.00 0.00 0.00 68 1019.1
20260901151545 86 210 0.9 2.6 0.00 0.00 0.00 68 1019.1
20260901151041 86 203 0.9 2.6 0.00 0.00 0.00 68 1019.1
20260901150539 86 151 0.9 1.7 0.00 0.00 0.00 70 1019.1
20260901150042 85 150 0.0 1.7 0.00 0.00 0.00 72 1019.0
20260901145536 84 150 0.0 1.7 0.00 0.00 0.00 72 1019.1
20260901145034 84 150 0.0 1.7 0.00 0.00 0.00 74 1019.1
20260901144539 83 150 0.0 3.5 0.00 0.00 0.00 74 1019.1
20260901144032 83 203 0.0 1.7 0.00 0.00 0.00 75 1019.1
20260901143532 83 213 0.0 0.9 0.00 0.00 0.00 76 1019.1
20260901143030 82 213 0.0 0.0 0.00 0.00 0.00 78 1019.2
20260901142531 82 213 0.0 0.0 0.00 0.00 0.00 78 1019.3
20260901142028 81 213 0.0 2.6 0.00 0.00 0.00 79 1019.3
20260901141528 81 213 0.0 3.5 0.00 0.00 0.00 80 1019.3
20260901141027 81 168 1.7 3.5 0.00 0.00 0.00 80 1019.3
20260901140526 81 169 0.0 2.6 0.00 0.00 0.00 81 1019.2
20260901140031 81 169 0.9 2.6 0.00 0.00 0.00 81 1019.3
20260901135524 80 156 0.0 3.5 0.00 0.00 0.00 82 1019.3
20260901135024 80 174 0.0 1.7 0.00 0.00 0.00 83 1019.2
20260901134521 79 174 0.0 2.6 0.00 0.00 0.00 83 1019.2
20260901134024 79 174 0.0 2.6 0.00 0.00 0.00 83 1019.2
20260901133521 79 176 0.9 2.6 0.00 0.00 0.00 84 1019.2
20260901133018 78 172 0.9 2.6 0.00 0.00 0.00 85 1019.2
20260901132517 78 164 0.0 2.6 0.00 0.00 0.00 86 1019.1
20260901132019 77 164 0.9 2.6 0.00 0.00 0.00 86 1019.1
20260901131524 77 174 0.0 3.5 0.00 0.00 0.00 87 1019.1
20260901131014 76 174 0.9 2.6 0.00 0.00 0.00 88 1019.1
20260901130518 76 185 0.0 0.0 0.00 0.00 0.00 89 1019.1
20260901130013 75 185 0.0 0.0 0.00 0.00 0.00 90 1019.1
20260901125514 75 185 0.0 0.0 0.00 0.00 0.00 91 1019.1
20260901125013 74 185 0.0 0.0 0.00 0.00 0.00 92 1019.1
20260901124512 74 185 0.0 0.0 0.00 0.00 0.00 92 1019.0
20260901124012 73 185 0.0 0.0 0.00 0.00 0.00 93 1019.0
20260901123511 73 185 0.0 0.0 0.00 0.00 0.00 94 1018.9
20260901123010 72 185 0.0 0.0 0.00 0.00 0.00 94 1018.9
20260901122512 72 185 0.0 0.0 0.00 0.00 0.00 94 1019.0
20260901122009 72 185 0.0 0.0 0.00 0.00 0.00 94 1019.1
20260901121510 71 185 0.0 0.0 0.00 0.00 0.00 94 1018.9
20260901121008 71 185 0.0 0.0 0.00 0.00 0.00 95 1018.9
20260901120507 71 185 0.0 0.0 0.00 0.00 0.00 95 1018.9
20260901120015 71 185 0.0 0.0 0.00 0.00 0.00 94 1018.7
20260901115505 71 185 0.0 0.0 0.00 0.00 0.00 94 1018.7
20260901115004 71 185 0.0 0.0 0.00 0.00 0.00 94 1018.7
20260901114506 71 185 0.0 0.0 0.00 0.00 0.00 94 1018.6
20260901114003 71 185 0.0 0.0 0.00 0.00 0.00 94 1018.5
20260901113502 71 185 0.0 0.0 0.00 0.00 0.00 94 1018.4
20260901113002 71 185 0.0 0.0 0.00 0.00 0.00 94 1018.3
20260901112500 71 185 0.0 0.0 0.00 0.00 0.00 94 1018.2
20260901112001 71 185 0.0 0.0 0.00 0.00 0.00 94 1018.2
20260901111600 71 185 0.0 0.0 0.00 0.00 0.00 94 1018.1
20260901111100 71 185 0.0 0.0 0.00 0.00 0.00 94 1018.1
20260901110559 71 185 0.0 0.0 0.00 0.00 0.00 94 1018.0
20260901110059 71 185 0.0 0.0 0.00 0.00 0.00 94 1017.9
20260901105602 71 185 0.0 0.0 0.00 0.00 0.00 94 1018.0
20260901105101 71 185 0.0 0.0 0.00 0.00 0.00 94 1017.9
20260901104603 71 185 0.0 0.0 0.00 0.00 0.00 94 1017.9
20260901104057 71 185 0.0 0.0 0.00 0.00 0.00 93 1017.8
20260901103557 71 185 0.0 0.0 0.00 0.00 0.00 93 1017.8
20260901103056 71 185 0.0 0.0 0.00 0.00 0.00 93 1017.7
20260901102557 71 185 0.0 0.0 0.00 0.00 0.00 93 1017.7
20260901102056 71 185 0.0 0.0 0.00 0.00 0.00 93 1017.8
20260901101605 71 185 0.0 0.0 0.00 0.00 0.00 93 1017.8
20260901101056 71 185 0.0 0.0 0.00 0.00 0.00 93 1017.7
20260901100555 71 185 0.0 0.0 0.00 0.00 0.00 93 1017.8
20260901100058 71 185 0.0 0.0 0.00 0.00 0.00 93 1017.7
20260901095554 71 185 0.0 0.0 0.00 0.00 0.00 93 1017.6
20260901095054 71 185 0.0 0.0 0.00 0.00 0.00 93 1017.6
20260901094555 71 185 0.0 0.0 0.00 0.00 0.00 93 1017.6
20260901094058 72 185 0.0 0.0 0.00 0.00 0.00 93 1017.5
20260901093553 72 185 0.0 0.0 0.00 0.00 0.00 93 1017.6
20260901093054 72 185 0.0 0.0 0.00 0.00 0.00 92 1017.6
20260901092553 72 185 0.0 0.0 0.00 0.00 0.00 92 1017.5
20260901092052 72 185 0.0 0.0 0.00 0.00 0.00 92 1017.5
20260901091557 72 185 0.0 0.0 0.00 0.00 0.00 92 1017.5
20260901091051 72 185 0.0 0.9 0.00 0.00 0.00 91 1017.5
20260901090550 72 185 0.0 0.9 0.00 0.00 0.00 92 1017.4
20260901090049 72 185 0.0 0.0 0.00 0.00 0.00 91 1017.4
20260901085549 73 185 0.0 0.0 0.00 0.00 0.00 91 1017.4
20260901085049 73 185 0.0 0.0 0.00 0.00 0.00 91 1017.5
20260901084551 73 185 0.0 0.0 0.00 0.00 0.00 90 1017.5
20260901084048 73 185 0.0 0.0 0.00 0.00 0.00 90 1017.5
20260901083548 73 185 0.0 0.0 0.00 0.00 0.00 90 1017.5
20260901083048 73 185 0.0 0.0 0.00 0.00 0.00 90 1017.4
20260901082546 73 185 0.0 0.0 0.00 0.00 0.00 90 1017.5
20260901082050 73 185 0.0 0.0 0.00 0.00 0.00 90 1017.5
20260901081552 73 185 0.0 0.0 0.00 0.00 0.00 90 1017.4
20260901081046 73 185 0.0 0.0 0.00 0.00 0.00 90 1017.4
20260901080546 73 185 0.0 0.0 0.00 0.00 0.00 90 1017.3
20260901080138 73 185 0.0 0.0 0.00 0.00 0.00 90 1017.3
20260901075545 73 185 0.0 0.0 0.00 0.00 0.00 90 1017.3
20260901075046 73 185 0.0 0.0 0.00 0.00 0.00 90 1017.3
20260901074545 73 185 0.0 0.0 0.00 0.00 0.00 90 1017.3
20260901074044 73 185 0.0 0.0 0.00 0.00 0.00 90 1017.2
20260901073544 73 185 0.0 0.0 0.00 0.00 0.00 90 1017.1
20260901073044 74 185 0.0 0.0 0.00 0.00 0.00 90 1017.1
20260901072544 74 185 0.0 0.0 0.00 0.00 0.00 90 1017.2
20260901072048 74 185 0.0 0.0 0.00 0.00 0.00 90 1017.3
20260901071544 74 185 0.0 0.0 0.00 0.00 0.00 89 1017.2
20260901071043 74 185 0.0 0.0 0.00 0.00 0.00 89 1017.2
20260901070544 74 185 0.0 0.0 0.00 0.00 0.00 89 1017.2
20260901070042 74 185 0.0 0.0 0.00 0.00 0.00 90 1017.3
20260901065541 74 185 0.0 0.0 0.00 0.00 0.00 89 1017.4
20260901065041 73 185 0.0 0.0 0.00 0.00 0.00 90 1017.4
20260901064541 73 185 0.0 0.0 0.00 0.00 0.00 89 1017.4
20260901064041 73 185 0.0 0.0 0.00 0.00 0.00 89 1017.4
20260901063539 74 185 0.0 0.0 0.00 0.00 0.00 88 1017.4
20260901063053 74 185 0.0 0.0 0.00 0.00 0.00 88 1017.5
20260901062540 74 185 0.0 0.0 0.00 0.00 0.00 88 1017.5
20260901062039 74 185 0.0 0.0 0.00 0.00 0.00 88 1017.5
20260901061550 74 185 0.0 0.0 0.00 0.00 0.00 88 1017.5
20260901061036 74 185 0.0 0.0 0.00 0.00 0.00 88 1017.6
20260901060541 74 185 0.0 0.0 0.00 0.00 0.00 88 1017.6
20260901060038 74 185 0.0 0.0 0.00 0.00 0.00 88 1017.6
20260901055536 74 185 0.0 0.0 0.00 0.00 0.00 88 1017.7
20260901055037 74 185 0.0 0.0 0.00 0.00 0.00 87 1017.7
20260901054541 74 185 0.0 0.0 0.00 0.00 0.00 88 1017.6
20260901054035 75 185 0.0 0.0 0.00 0.00 0.00 88 1017.6
20260901053535 75 185 0.0 0.0 0.00 0.00 0.00 87 1017.7
20260901053038 75 185 0.0 0.0 0.00 0.00 0.00 88 1017.7
20260901052533 75 185 0.0 0.0 0.00 0.00 0.00 88 1017.7
20260901052033 75 185 0.0 0.0 0.00 0.00 0.00 88 1017.8
20260901051532 75 185 0.0 0.0 0.00 0.00 0.00 87 1017.9
20260901051033 75 185 0.0 0.0 0.00 0.00 0.00 87 1017.9
20260901050532 75 185 0.0 0.0 0.00 0.00 0.00 87 1017.8
20260901050031 75 185 0.0 0.0 0.00 0.00 0.00 87 1017.8
20260901045534 75 185 0.0 0.0 0.00 0.00 0.00 87 1017.9
20260901045030 75 185 0.0 0.0 0.00 0.00 0.00 87 1017.8
20260901044530 75 185 0.0 0.0 0.00 0.00 0.00 87 1017.8
20260901044029 75 185 0.0 0.0 0.00 0.00 0.00 86 1017.8
20260901043529 75 185 0.0 0.0 0.00 0.00 0.00 86 1017.7
20260901043033 75 185 0.0 0.0 0.00 0.00 0.00 86 1017.7
20260901042528 76 185 0.0 0.0 0.00 0.00 0.00 86 1017.7
20260901042027 76 185 0.0 0.0 0.00 0.00 0.00 86 1017.7
20260901041533 76 185 0.0 0.0 0.00 0.00 0.00 85 1017.7
20260901041028 76 185 0.0 0.0 0.00 0.00 0.00 85 1017.7
20260901040525 76 185 0.0 0.0 0.00 0.00 0.00 85 1017.8
20260901040024 76 185 0.0 0.0 0.00 0.00 0.00 85 1017.8
20260901035524 76 185 0.0 0.0 0.00 0.00 0.00 85 1017.8
20260901035024 76 185 0.0 0.0 0.00 0.00 0.00 85 1017.9
20260901034525 76 185 0.0 0.0 0.00 0.00 0.00 85 1017.9
20260901034024 76 185 0.0 0.0 0.00 0.00 0.00 84 1017.8
20260901033523 76 185 0.0 0.0 0.00 0.00 0.00 84 1017.8
20260901033023 76 185 0.0 0.0 0.00 0.00 0.00 84 1017.7
20260901032524 76 185 0.0 0.0 0.00 0.00 0.00 83 1017.7
20260901032024 77 185 0.0 0.0 0.00 0.00 0.00 83 1017.8
20260901031524 77 185 0.0 0.0 0.00 0.00 0.00 83 1017.8
20260901031023 77 185 0.0 0.0 0.00 0.00 0.00 82 1017.7
20260901030522 77 185 0.0 0.0 0.00 0.00 0.00 82 1017.8
20260901030022 77 185 0.0 0.0 0.00 0.00 0.00 83 1017.8
20260901025522 77 185 0.0 0.0 0.00 0.00 0.00 83 1017.7
20260901025022 77 185 0.0 0.0 0.00 0.00 0.00 82 1017.8
20260901024522 77 185 0.0 0.0 0.00 0.00 0.00 82 1017.7
20260901024022 77 185 0.0 0.0 0.00 0.00 0.00 82 1017.7
20260901023521 77 185 0.0 0.0 0.00 0.00 0.00 82 1017.7
20260901023021 77 185 0.0 0.0 0.00 0.00 0.00 81 1017.7
20260901022521 77 185 0.0 0.0 0.00 0.00 0.00 81 1017.7
20260901022021 78 185 0.0 0.0 0.00 0.00 0.00 81 1017.6
20260901021527 78 185 0.0 0.0 0.00 0.00 0.00 81 1017.7
20260901021022 78 185 0.0 0.0 0.00 0.00 0.00 80 1017.6
20260901020521 78 185 0.0 0.0 0.00 0.00 0.00 80 1017.6
20260901020020 78 185 0.0 0.0 0.00 0.00 0.00 80 1017.5
20260901015521 78 185 0.0 0.0 0.00 0.00 0.00 79 1017.4
20260901015021 79 185 0.0 0.0 0.00 0.00 0.00 79 1017.4
20260901014520 79 185 0.0 0.0 0.00 0.00 0.00 77 1017.4
20260901014019 79 185 0.0 0.0 0.00 0.00 0.00 78 1017.4
20260901013520 79 185 0.0 0.0 0.00 0.00 0.00 77 1017.3
20260901013020 79 185 0.0 0.0 0.00 0.00 0.00 76 1017.2
20260901012526 79 185 0.0 0.0 0.00 0.00 0.00 76 1017.2
20260901012024 80 185 0.0 0.0 0.00 0.00 0.00 75 1017.1
20260901011526 80 185 0.0 0.0 0.00 0.00 0.00 75 1017.0
20260901011022 80 185 0.0 0.0 0.00 0.00 0.00 74 1016.9
20260901010519 80 185 0.0 0.0 0.00 0.00 0.00 73 1016.9
20260901010020 80 185 0.0 0.0 0.00 0.00 0.00 73 1016.8
20260901005519 80 185 0.0 0.0 0.00 0.00 0.00 73 1016.7
20260901005023 81 185 0.0 0.0 0.00 0.00 0.00 73 1016.7
20260901004518 81 185 0.0 0.0 0.00 0.00 0.00 73 1016.6
20260901004018 81 185 0.0 0.0 0.00 0.00 0.00 72 1016.6
20260901003518 81 185 0.0 0.0 0.00 0.00 0.00 72 1016.6
20260901003018 82 185 0.0 0.0 0.00 0.00 0.00 71 1016.5
20260901002520 82 185 0.0 0.0 0.00 0.00 0.00 71 1016.5
20260901002022 82 185 0.0 0.0 0.00 0.00 0.00 70 1016.5
20260901001520 83 185 0.0 0.0 0.00 0.00 0.00 69 1016.5
20260901001017 83 185 0.0 0.0 0.00 0.00 0.00 68 1016.5
20260901000517 83 185 0.0 0.0 0.00 0.00 0.00 68 1016.4
20260901000020 84 185 0.0 0.0 0.00 0.00 0.00 66 1016.3
20260831235517 84 185 0.0 0.0 0.00 0.00 0.00 66 1016.4
20260831235020 84 185 0.0 0.0 0.00 0.00 0.00 65 1016.3
20260831234516 85 185 0.0 0.0 0.00 0.00 0.00 66 1016.3
20260831234016 85 185 0.0 0.0 0.00 0.00 0.00 64 1016.4
20260831233516 86 185 0.0 0.0 0.00 0.00 0.00 62 1016.4
20260831233015 86 185 0.0 0.0 0.00 0.00 0.00 59 1016.4
20260831232515 86 185 0.0 0.0 0.00 0.00 0.00 58 1016.4
20260831232015 87 185 0.0 0.0 0.00 0.00 0.00 58 1016.4
20260831231524 87 185 0.0 0.0 0.00 0.00 0.00 56 1016.4
20260831231015 88 185 0.0 0.0 0.00 0.00 0.00 57 1016.4
20260831230517 88 185 0.0 0.0 0.00 0.00 0.00 56 1016.4
20260831230014 87 185 0.0 0.9 0.00 0.00 0.00 57 1016.5
20260831225514 88 185 0.0 0.9 0.00 0.00 0.00 57 1016.5
20260831225013 88 185 0.0 1.7 0.00 0.00 0.00 57 1016.5
20260831224540 88 168 0.0 1.7 0.00 0.00 0.00 56 1016.5
20260831224016 88 169 0.0 1.7 0.00 0.00 0.00 55 1016.5
20260831223513 88 91 0.0 0.0 0.00 0.00 0.00 56 1016.6
20260831223013 88 91 0.0 1.7 0.00 0.00 0.00 55 1016.5
20260831222512 88 91 0.0 1.7 0.00 0.00 0.00 56 1016.6
20260831222012 89 91 0.0 1.7 0.00 0.00 0.00 55 1016.6
20260831221512 89 141 0.0 2.6 0.00 0.00 0.00 56 1016.6
20260831221012 89 141 0.9 2.6 0.00 0.00 0.00 55 1016.7
20260831220512 88 70 0.0 1.7 0.00 0.00 0.00 56 1016.6
20260831220011 88 70 0.0 1.7 0.00 0.00 0.00 55 1016.7
20260831215517 89 70 0.0 2.6 0.00 0.00 0.00 55 1016.7
20260831215013 89 70 0.9 2.6 0.00 0.00 0.00 55 1016.7
20260831214511 88 101 0.0 1.7 0.00 0.00 0.00 56 1016.7
20260831214014 88 99 0.9 3.5 0.00 0.00 0.00 56 1016.8
20260831213511 89 99 0.9 3.5 0.00 0.00 0.00 56 1016.8
20260831213010 89 46 0.0 1.7 0.00 0.00 0.00 55 1016.8
20260831212509 89 6 0.9 2.6 0.00 0.00 0.00 55 1016.9
20260831212013 89 6 0.9 2.6 0.00 0.00 0.00 54 1016.9
20260831211508 90 65 0.9 2.6 0.00 0.00 0.00 53 1017.0
20260831211011 90 89 0.9 2.6 0.00 0.00 0.00 52 1017.0
20260831210507 90 134 0.9 3.5 0.00 0.00 0.00 52 1017.0
20260831210014 90 104 0.9 3.5 0.00 0.00 0.00 53 1017.0
20260831205506 89 248 0.0 2.6 0.00 0.00 0.00 53 1017.0
20260831205006 90 289 0.9 4.3 0.00 0.00 0.00 53 1017.0
20260831204506 90 153 1.7 4.3 0.00 0.00 0.00 52 1017.1
20260831204009 89 124 0.0 3.5 0.00 0.00 0.00 55 1017.0
20260831203506 90 124 0.9 3.5 0.00 0.00 0.00 54 1017.0
20260831203013 90 145 0.9 3.5 0.00 0.00 0.00 52 1017.2
20260831202505 89 262 0.0 1.7 0.00 0.00 0.00 55 1017.1
20260831202005 89 302 0.9 2.6 0.00 0.00 0.00 53 1017.2
20260831201504 89 302 0.9 2.6 0.00 0.00 0.00 55 1017.3
20260831201004 89 323 0.0 3.5 0.00 0.00 0.00 56 1017.3
20260831200503 89 323 1.7 3.5 0.00 0.00 0.00 56 1017.3
20260831200002 89 89 0.9 2.6 0.00 0.00 0.00 56 1017.4
20260831195502 89 158 0.0 2.6 0.00 0.00 0.00 58 1017.4
20260831195002 89 2 0.9 2.6 0.00 0.00 0.00 58 1017.5
20260831194503 90 2 0.9 3.5 0.00 0.00 0.00 57 1017.5
20260831194100 90 160 0.9 3.5 0.00 0.00 0.00 56 1017.6
20260831193600 89 165 0.9 3.5 0.00 0.00 0.00 58 1017.6
20260831193102 89 210 0.9 2.6 0.00 0.00 0.00 59 1017.7
20260831192559 88 359 0.0 1.7 0.00 0.00 0.00 59 1017.9
20260831192103 88 359 0.0 1.7 0.00 0.00 0.00 60 1017.9
20260831191559 88 359 0.9 2.6 0.00 0.00 0.00 60 1018.0
20260831191102 88 359 0.9 2.6 0.00 0.00 0.00 59 1018.0
20260831190601 89 359 0.9 3.5 0.00 0.00 0.00 59 1018.0
20260831190115 90 359 0.9 3.5 0.00 0.00 0.00 58 1018.1
20260831185558 90 113 0.0 2.6 0.00 0.00 0.00 58 1018.2
20260831185057 90 182 0.9 3.5 0.00 0.00 0.00 58 1018.1
20260831184559 90 150 0.0 3.5 0.00 0.00 0.00 59 1018.3
20260831184057 90 151 0.9 3.5 0.00 0.00 0.00 56 1018.3
20260831183557 90 163 0.9 3.5 0.00 0.00 0.00 59 1018.4
20260831183057 89 124 0.9 4.3 0.00 0.00 0.00 58 1018.5
20260831182557 89 131 0.0 4.3 0.00 0.00 0.00 59 1018.5
20260831182102 90 82 1.7 3.5 0.00 0.00 0.00 56 1018.5
20260831181557 90 127 1.7 4.3 0.00 0.00 0.00 57 1018.6
20260831181057 90 94 1.7 4.3 0.00 0.00 0.00 57 1018.7
20260831180555 89 90 0.9 4.3 0.00 0.00 0.00 59 1018.7
20260831180055 90 145 1.7 4.3 0.00 0.00 0.00 59 1018.8
20260831175555 89 56 0.9 4.3 0.00 0.00 0.00 60 1018.9
20260831175053 90 86 0.9 2.6 0.00 0.00 0.00 60 1018.9
20260831174553 89 89 0.0 3.5 0.00 0.00 0.00 60 1019.0
20260831174054 88 3 0.0 2.6 0.00 0.00 0.00 59 1019.0
20260831173552 89 328 1.7 3.5 0.00 0.00 0.00 61 1019.0
20260831173051 89 127 0.9 3.5 0.00 0.00 0.00 62 1019.1
20260831172550 88 151 0.0 1.7 0.00 0.00 0.00 63 1019.2
20260831172050 88 144 0.0 2.6 0.00 0.00 0.00 63 1019.3
20260831171549 88 93 0.0 2.6 0.00 0.00 0.00 64 1019.3
20260831171048 88 85 0.9 2.6 0.00 0.00 0.00 65 1019.4
20260831170548 87 307 0.0 2.6 0.00 0.00 0.00 64 1019.3
20260831170047 87 267 0.9 1.7 0.00 0.00 0.00 66 1019.3
20260831165545 86 210 0.9 1.7 0.00 0.00 0.00 68 1019.4
20260831165044 85 209 0.0 1.7 0.00 0.00 0.00 70 1019.4
20260831164544 85 32 0.9 2.6 0.00 0.00 0.00 68 1019.4
20260831164044 86 32 0.9 2.6 0.00 0.00 0.00 69 1019.5
20260831163544 85 53 0.9 1.7 0.00 0.00 0.00 70 1019.4
20260831163044 84 55 0.0 1.7 0.00 0.00 0.00 70 1019.5
20260831162548 85 56 0.9 2.6 0.00 0.00 0.00 69 1019.6
20260831162046 86 262 0.9 2.6 0.00 0.00 0.00 68 1019.6
20260831161543 85 293 1.7 2.6 0.00 0.00 0.00 69 1019.7
20260831161045 85 232 0.9 2.6 0.00 0.00 0.00 71 1019.8
20260831160545 83 242 0.9 2.6 0.00 0.00 0.00 73 1019.8
20260831160044 83 278 0.9 2.6 0.00 0.00 0.00 72 1019.9
20260831155542 84 165 0.0 2.6 0.00 0.00 0.00 70 1019.9